Location: Siratepeler Tepesi
(39.1042°N, 32.0781°E)
Time: 01:40:02
(UTC+00:00)

ASTEX 1 - Pass Details

Date: 11 April 2026
Orbit: 713 x 733 km, 92.7° (Epoch: 13 May)

Event Time Altitude Azimuth Distance (km) Brightness Sun altitude
Exits shadow 19:11:34 48° 359° (N) 942 4.1 -29.5°
Drops below altitude 10° 19:15:06 10° 355° (N) 2,221 6.4 -30.0°
Sets 19:17:24 0° 355° (N) 3,150 7.3 -30.3°
